カタログに戻る

KUIPER-00136

運用中通信LEO
NORAD 65962·PAYLOAD·🇺🇸 United States

打ち上げ Oct 14, 2025 から Cape Canaveral Space Force Station

Loading…

次のパス (今後24時間)

TLE

最新Source: CelesTrak SupGP

元期: Sep 14, 2026, 15:54 UTC

1 65962C 25228R   26257.66292824 -.00000765  00000+0 -10016-3 0  2575
2 65962  51.8994 232.5140 0000856  44.8759 345.2715 14.79942055    13

AllMySatでKUIPER-00136をリアルタイム追跡

Download on the App Store